Wind_Speed
2 2 1 1 4 4 3 2 1 2 1 2 3 1 5 6 5 4 6 4 1 3 2 3 5 4 5 6 10 11 7 3 3 4 3 3 15 20 20 27 30 25 25 22 20 19 18 19 21 23 22 21 21 19 19 19 21 22 23 23 22 21 21 21 20 20 20 20 19 19 19 19 19 20 21 22 22 21 21 21 20 20 20 20 19 19 18 18 17 16 16 15 13 14 14 14 14
2 1 1 2 3 3 1 2 2 2 2 3 3 3 6 5 3 5 6 4 4 4 2 6 8 8 8 9 9 10 10 9 9 7 5 17 25 20 22 27 28 26 25 23 22 21 19 20 22 23 22 22 21 19 19 19 21 22 22 22 22 21 21 21 20 20 20 20 19 19 19 19 19 19 21 22 21 20 20 20 19 19 19 19 19 18 17 17 16 16 15 13 13 14 14 13 14
2 3 2 3 2 2 0 2 2 1 1 3 5 4 5 4 5 7 7 6 8 5 5 7 7 4 5 8 7 6 6 8 12 9 6 18 20 16 22 24 27 28 27 26 24 23 22 22 23 24 23 23 21 20 19 19 21 21 22 22 22 21 20 20 20 20 20 20 20 19 19 19 19 19 20 22 21 19 19 20 19 18 18 18 18 17 16 16 14 15 17 16 16 16 15 15 15
3 3 1 3 3 2 3 2 2 3 3 4 4 5 3 4 7 7 7 7 7 1 4 4 5 4 7 11 6 6 7 7 11 10 6 14 19 21 26 27 30 30 30 29 27 26 25 24 25 25 25 24 22 21 20 20 21 21 21 22 21 20 20 20 20 20 20 20 20 19 19 18 18 19 21 22 21 18 19 20 18 17 17 17 16 16 16 15 13 15 17 17 16 15 15 15 15
3 2 0 3 3 1 2 1 2 3 4 4 3 6 5 5 7 6 6 6 6 2 4 4 4 3 7 8 2 4 6 9 12 15 14 18 29 30 31 35 36 34 32 30 28 27 26 26 25 25 26 25 24 21 21 21 21 21 21 22 21 20 20 19 20 20 19 19 19 18 18 18 18 19 21 22 20 17 19 19 17 16 17 16 16 16 14 13 12 13 17 16 15 14 14 13 13
3 3 2 2 1 0 1 1 2 2 5 4 3 8 9 8 6 6 6 6 6 2 6 5 5 5 6 5 6 4 4 11 11 17 23 27 33 33 34 35 34 33 31 28 27 26 25 25 24 25 26 25 24 22 22 21 21 21 22 23 22 20 20 19 20 19 19 19 19 18 17 18 18 18 21 21 19 16 17 18 17 16 16 15 15 15 13 12 11 12 16 16 14 14 13 12 12
4 4 2 2 1 1 2 3 4 4 5 6 6 9 11 12 7 4 4 3 3 1 6 7 10 10 4 3 6 9 10 21 14 21 31 33 34 31 31 30 29 29 28 28 26 25 25 25 25 26 26 26 25 23 22 21 20 21 22 23 22 20 19 19 19 19 19 19 19 18 18 18 17 18 19 19 18 15 16 17 17 16 15 14 14 13 12 11 11 12 14 15 15 14 13 12 12
4 2 1 3 1 1 1 3 4 4 4 6 7 9 11 14 10 3 3 2 1 1 6 8 11 11 4 6 5 7 12 25 24 30 35 34 32 28 28 29 29 28 28 29 28 27 26 26 26 26 26 26 25 24 22 21 20 21 22 23 22 20 19 18 19 19 19 19 19 18 18 17 17 18 18 17 16 15 16 17 16 15 14 14 13 12 11 10 11 12 13 15 15 14 13 12 11
3 1 1 3 1 2 2 3 4 4 5 7 8 11 12 12 9 4 2 3 0 3 5 5 7 10 6 12 7 1 10 24 31 32 31 32 30 28 28 30 31 28 29 29 28 27 26 26 26 26 26 27 26 25 23 21 20 21 23 23 22 19 18 18 19 20 19 19 18 18 18 17 17 17 17 16 16 16 16 16 15 14 13 12 11 11 10 11 11 12 14 16 16 14 13 12 12
2 1 1 2 2 1 4 3 4 4 6 7 10 14 11 9 5 1 2 3 1 5 6 7 11 11 10 11 6 2 9 23 29 25 24 30 29 30 29 28 31 29 30 30 29 28 27 26 26 27 26 27 27 25 24 22 21 21 23 23 21 18 17 18 19 19 19 19 18 19 18 17 17 17 16 16 16 16 15 15 14 14 12 11 11 11 10 11 11 12 15 18 17 15 13 12 13
2 1 2 1 1 1 3 4 5 5 7 8 10 13 10 5 0 3 4 4 3 8 7 9 12 11 11 6 2 2 11 18 23 22 22 28 29 31 29 26 27 28 30 29 28 27 26 25 25 26 25 26 26 25 24 23 21 21 22 23 20 18 18 19 19 19 19 19 19 19 19 18 18 18 17 16 17 16 15 15 14 13 11 11 11 10 11 11 12 13 17 19 18 15 13 13 13
2 1 3 1 2 3 4 3 6 6 9 8 6 7 3 1 3 2 3 3 3 9 5 4 8 9 9 4 1 3 8 11 18 23 24 28 28 29 29 27 26 26 28 28 27 26 25 25 25 25 25 25 26 25 24 23 22 22 23 22 20 19 20 20 19 19 20 20 20 19 19 19 18 18 17 17 16 15 15 14 13 12 10 11 10 11 11 12 12 14 19 20 17 15 14 12 12
2 2 4 1 3 3 4 4 6 6 8 5 3 3 1 3 1 6 2 3 3 6 2 7 11 7 7 4 2 3 6 10 18 24 27 28 26 28 29 28 27 27 28 28 27 26 26 25 25 25 25 25 25 25 23 23 22 22 23 22 21 20 20 20 20 21 21 20 19 18 18 18 18 17 16 17 16 15 14 14 13 11 10 10 10 11 11 12 13 15 19 19 16 14 13 12 12
3 2 4 1 2 2 4 4 5 4 5 5 3 5 1 1 4 4 4 6 6 5 6 9 13 10 7 4 3 3 6 13 21 26 28 27 25 27 28 27 27 27 28 28 28 27 26 26 25 25 25 25 25 24 22 22 22 22 22 22 21 20 19 19 20 22 21 19 18 17 18 18 18 16 15 16 15 14 13 13 12 10 10 10 10 11 10 12 13 15 18 18 16 14 12 11 12
5 1 4 1 3 3 3 4 5 4 5 4 3 4 1 2 2 3 4 5 5 5 8 7 8 8 8 9 6 7 12 19 24 28 27 24 24 25 26 27 26 27 27 26 26 26 26 26 25 25 25 25 24 23 22 21 22 23 22 22 21 20 19 19 21 22 20 19 17 17 17 17 17 16 15 15 15 15 13 12 12 10 9 10 10 10 10 12 13 15 16 17 16 14 12 11 12
4 2 2 1 3 3 3 4 3 2 5 5 3 2 2 4 3 3 2 4 4 2 5 2 3 4 12 11 10 17 22 25 28 29 26 23 22 22 23 23 24 24 24 23 23 24 25 25 25 25 25 25 24 23 22 21 22 23 23 22 20 19 19 20 21 21 19 18 17 17 16 16 16 15 14 14 14 15 13 11 11 10 9 9 10 10 10 11 13 14 14 16 16 14 12 12 13
1 2 2 4 3 3 4 4 2 0 5 5 2 4 4 4 6 2 4 8 8 5 7 5 5 4 9 7 16 28 28 29 30 29 25 22 21 19 19 20 21 21 21 22 22 23 24 24 25 25 25 25 24 23 23 22 23 23 23 22 20 19 19 20 21 20 18 17 17 17 16 16 16 15 14 13 14 14 13 10 10 10 9 9 10 10 10 11 13 13 13 15 16 15 13 13 13
2 2 4 5 4 4 4 3 4 2 3 5 3 4 5 3 6 3 6 9 10 9 8 7 9 10 10 13 23 28 27 29 30 29 24 20 19 17 16 17 18 18 19 20 21 23 24 25 25 26 25 25 24 23 23 23 23 23 23 21 19 19 19 20 21 20 19 18 17 17 17 17 15 15 14 14 14 13 13 11 10 9 9 9 10 11 11 11 13 14 13 15 16 15 13 13 12
4 3 4 5 5 3 2 2 6 4 2 3 3 3 5 3 5 2 5 4 9 11 8 8 11 11 13 17 22 22 23 26 26 26 23 20 18 16 15 15 16 17 19 19 21 23 25 26 25 26 26 25 24 23 23 23 23 23 22 21 20 20 20 20 20 20 19 19 19 18 17 16 14 14 13 13 13 13 13 12 10 9 9 9 10 11 12 12 13 14 14 15 16 15 13 11 10
4 4 4 6 5 4 5 4 6 7 4 0 3 2 6 5 5 3 5 4 6 8 6 8 9 9 11 12 16 19 21 20 21 21 19 18 17 15 14 14 15 18 20 20 22 24 26 26 25 25 25 25 24 23 22 22 23 23 22 20 20 21 20 20 20 20 20 19 19 18 16 15 14 13 12 12 12 13 13 13 12 10 9 9 10 12 12 12 12 14 14 14 14 13 11 10 8
2 5 5 5 4 5 8 5 6 9 3 2 2 4 5 7 4 3 6 5 3 4 7 11 14 14 14 13 13 17 17 17 18 17 15 15 14 14 13 13 17 20 22 22 23 24 25 25 24 24 24 24 24 22 22 22 23 23 22 21 20 21 20 20 20 21 20 18 18 17 16 15 13 13 13 13 14 14 14 14 13 12 10 10 10 12 13 12 12 12 14 14 13 11 10 9 8
3 5 6 7 5 5 9 6 6 7 1 2 3 5 2 5 4 1 6 5 3 5 7 13 18 18 18 16 14 14 14 14 15 15 15 14 14 14 15 18 20 21 22 23 24 24 24 24 23 23 23 23 23 22 22 22 23 23 23 22 21 20 20 20 20 21 20 18 17 17 16 15 14 14 14 14 14 14 15 14 13 11 11 11 12 12 13 13 11 12 13 13 12 10 9 9 6
4 6 5 8 8 7 9 4 4 5 3 3 1 1 1 4 5 3 5 4 6 5 8 13 16 16 18 16 14 14 14 14 13 15 16 15 15 19 23 22 19 19 20 22 25 24 24 24 23 23 24 23 23 23 22 22 23 24 25 24 22 21 21 20 20 20 19 18 18 17 17 16 15 15 15 14 14 14 13 12 11 10 10 12 13 13 13 13 12 11 12 11 10 9 8 7 4
7 7 6 8 8 9 10 4 5 6 7 5 3 2 1 2 3 5 4 2 4 9 10 13 14 14 16 14 13 13 13 13 13 17 20 20 22 25 25 21 18 19 21 24 26 25 25 25 23 23 24 25 25 24 24 24 25 26 26 23 22 23 23 22 21 20 19 18 19 18 17 17 16 16 16 15 14 14 13 11 10 10 10 11 12 13 13 13 13 12 11 11 10 8 7 5 3
8 10 8 7 7 9 10 6 7 6 5 6 5 4 5 5 3 3 4 1 8 11 11 13 14 13 13 12 12 11 11 12 13 17 18 19 22 21 20 20 21 23 25 26 26 25 25 25 24 23 25 25 25 25 25 26 27 27 27 24 24 25 24 23 22 21 20 19 19 18 17 17 17 17 17 15 14 14 13 12 12 11 10 10 11 12 13 13 14 12 11 11 9 7 7 6 4
6 8 8 7 7 8 8 6 6 7 4 4 6 5 7 5 2 3 5 6 9 11 11 11 14 13 11 11 11 10 11 12 14 17 16 16 19 18 18 21 22 24 24 24 24 24 23 23 23 23 23 23 23 25 26 27 28 28 26 24 25 25 24 24 23 21 20 20 20 19 18 18 18 18 17 16 15 14 13 14 13 12 11 11 11 12 12 13 14 12 11 10 9 7 6 6 5
5 6 7 9 9 8 6 5 6 6 4 5 7 6 6 3 2 4 6 7 10 12 12 10 12 12 11 10 10 10 11 13 17 19 15 14 17 18 19 20 22 24 22 22 23 23 23 22 23 25 25 25 24 25 27 27 26 26 25 24 25 26 25 23 21 21 20 20 20 19 19 19 19 19 18 17 15 14 14 15 14 14 13 13 12 12 11 12 13 11 9 9 8 6 5 5 5
6 7 7 8 7 6 5 6 6 3 2 5 7 3 5 1 4 7 6 8 13 14 12 11 11 10 10 10 10 9 10 16 21 20 14 14 19 22 21 21 23 24 21 21 22 22 24 24 25 27 29 30 28 27 28 27 25 25 25 25 25 25 25 23 21 20 20 20 19 19 20 20 20 19 18 18 16 15 15 15 15 15 14 12 11 11 12 12 11 9 8 9 9 7 7 6 7
7 6 5 7 5 5 6 6 4 2 2 5 6 3 5 3 5 9 6 10 13 14 12 10 10 8 8 9 9 8 9 17 20 17 18 22 25 26 26 26 26 24 20 20 21 22 24 25 26 27 28 30 31 29 28 27 25 25 25 24 24 23 22 22 22 21 21 21 19 19 21 22 21 19 18 17 16 16 16 15 16 14 12 11 9 12 15 13 11 11 11 11 10 10 10 9 9
5 4 3 3 6 5 6 3 2 2 3 6 6 2 6 6 8 10 5 11 12 11 11 10 8 7 7 7 8 7 8 13 16 18 23 26 25 26 27 27 27 25 21 20 22 22 23 25 26 26 26 29 32 29 25 25 25 25 24 22 22 22 21 22 22 21 21 20 19 20 22 23 22 20 18 17 16 16 15 14 14 13 12 12 11 14 17 14 13 14 13 11 11 11 10 9 8
3 3 1 1 2 5 4 2 3 2 2 7 7 3 8 7 9 11 4 11 14 12 11 9 8 7 7 6 7 8 7 10 17 24 27 27 26 26 25 26 26 24 23 23 23 21 21 22 24 26 26 28 29 25 22 24 23 21 21 20 20 21 21 22 22 21 20 19 19 20 22 23 23 22 20 18 17 16 14 13 13 13 14 14 13 15 17 14 13 12 11 10 12 11 10 9 9
1 0 3 2 2 5 6 3 6 5 3 5 7 4 7 7 9 10 4 12 15 13 11 9 9 8 8 7 7 7 6 8 17 25 28 28 27 26 26 27 25 24 24 24 23 21 20 20 21 26 26 28 28 21 21 25 20 17 17 17 17 18 19 20 21 20 19 19 20 21 22 22 23 23 20 19 19 17 16 15 14 15 17 16 13 14 15 13 11 10 8 9 11 10 10 11 11
2 2 3 2 3 3 5 5 6 8 3 2 8 5 4 5 8 9 3 11 14 13 11 10 9 9 8 7 5 6 6 6 10 16 23 26 26 25 26 27 26 25 24 23 23 21 20 19 20 22 17 20 25 20 19 20 16 17 17 16 17 19 19 19 19 19 18 19 20 22 22 22 23 23 22 20 19 18 17 16 15 16 18 16 13 14 12 11 11 9 8 8 9 10 11 12 13
4 2 1 2 3 2 3 6 4 7 7 6 9 7 6 7 6 7 4 8 14 13 13 12 10 8 6 6 6 6 7 7 7 11 18 24 26 25 26 27 27 27 24 22 21 20 20 19 19 19 13 14 23 24 21 17 14 17 18 19 20 20 20 19 19 19 19 19 20 21 22 22 23 23 22 21 20 19 17 16 17 17 16 15 15 15 12 12 11 9 10 11 10 11 12 13 14
2 1 0 3 3 3 4 6 5 6 9 9 9 9 10 10 6 7 7 8 16 14 13 11 9 8 6 7 7 7 8 6 7 11 17 22 25 25 26 28 28 27 23 21 21 20 21 20 18 17 12 15 23 25 24 20 16 19 20 20 20 19 19 19 19 20 20 20 21 21 21 21 23 23 21 20 20 20 18 18 18 16 16 16 16 17 12 11 10 10 12 14 13 12 12 14 17
3 3 2 3 4 5 6 8 7 7 10 9 10 10 10 7 7 8 7 4 12 11 11 9 7 8 8 8 7 6 7 6 9 14 17 22 25 26 27 27 27 25 23 23 23 23 23 21 19 17 14 17 24 25 23 23 21 21 21 21 21 20 20 21 22 22 21 21 21 21 22 21 22 22 20 19 19 20 20 21 19 18 17 17 16 16 13 10 10 11 11 14 16 15 14 16 18
4 4 3 4 4 5 6 9 10 7 10 8 10 10 8 5 6 8 4 6 8 8 11 10 8 8 8 7 7 7 6 5 10 15 19 24 27 27 28 27 26 25 24 26 26 27 25 21 20 18 16 21 27 27 24 24 25 24 23 22 22 22 23 23 23 23 23 23 21 21 23 22 22 22 21 20 19 19 21 21 20 20 19 16 14 13 12 12 12 12 11 13 17 19 18 17 17
5 4 5 6 5 5 7 9 8 5 7 4 7 7 7 7 6 7 1 7 7 9 11 10 9 8 7 8 8 7 5 3 7 9 15 24 26 27 28 28 29 28 28 28 29 29 26 22 21 20 19 25 29 28 26 27 27 25 25 25 25 25 26 26 25 25 24 23 22 22 23 22 22 22 22 21 20 20 21 21 20 21 19 16 14 13 13 14 14 13 13 16 18 20 21 20 21
4 3 4 6 4 4 7 7 5 3 4 3 6 6 6 8 5 5 3 5 5 9 12 11 11 10 8 9 9 7 6 4 6 6 11 20 25 27 27 27 29 30 30 30 29 29 28 25 23 21 20 26 31 30 28 27 26 25 25 26 28 28 27 27 25 24 23 22 22 22 23 22 21 21 21 21 21 20 20 20 20 19 19 17 16 16 16 15 15 14 16 19 20 19 19 23 23
3 3 3 6 4 1 4 6 8 7 1 4 6 5 4 6 6 6 2 4 3 7 13 12 12 13 13 13 10 9 9 8 9 8 9 15 20 21 23 24 26 28 30 30 28 28 28 27 25 23 21 25 32 33 30 27 25 25 24 23 24 24 23 23 22 21 21 20 20 22 23 22 21 21 21 21 21 20 19 18 18 18 18 18 17 18 18 17 15 15 18 20 21 19 19 24 20
5 5 5 6 6 4 5 3 7 8 5 2 5 3 4 5 5 7 5 2 3 1 8 9 9 10 11 11 9 10 10 8 7 5 5 7 12 16 20 24 26 27 28 28 28 30 29 27 25 24 23 26 31 34 33 30 27 26 22 18 18 18 18 20 20 20 19 19 20 22 22 21 21 21 21 21 20 19 18 17 17 18 18 18 18 17 17 17 16 16 18 20 21 20 21 25 18
5 5 9 10 8 7 5 2 5 6 6 2 4 4 5 6 4 7 6 6 8 6 3 6 8 6 4 5 7 6 2 4 6 6 6 9 12 16 19 22 23 23 23 23 25 29 30 28 27 26 25 27 31 34 35 32 29 27 24 21 20 18 19 21 21 20 20 20 21 21 21 20 20 20 20 19 19 19 18 17 17 18 18 19 18 17 17 17 18 16 17 19 22 22 22 24 19
4 6 10 9 4 4 4 3 5 2 3 3 3 5 3 6 5 7 4 9 10 9 7 1 5 6 5 5 3 2 5 7 7 8 8 10 13 15 16 19 22 21 21 21 24 28 30 28 27 28 28 29 31 33 34 33 30 28 26 25 24 22 21 21 21 20 20 21 22 20 21 20 19 19 19 18 18 18 17 16 16 17 18 18 16 17 18 19 19 18 18 19 20 21 23 24 21
4 6 7 5 1 4 4 3 4 2 3 4 4 5 2 3 5 5 6 11 11 10 9 9 7 4 2 1 4 7 6 6 6 7 8 9 12 17 18 21 25 24 15 11 15 20 25 27 28 29 30 30 31 32 32 33 31 28 25 24 23 21 20 20 21 20 19 21 21 20 21 20 18 17 17 17 16 16 16 15 15 16 16 16 15 17 18 19 20 18 19 19 18 19 20 21 22
6 7 7 4 2 4 3 1 3 1 1 3 6 2 3 3 6 6 7 10 9 9 9 11 12 11 9 8 10 10 8 7 7 7 7 8 12 18 20 23 26 22 9 14 11 10 12 16 19 23 27 28 29 31 32 32 30 27 25 23 21 19 19 19 20 21 20 20 20 21 21 20 18 17 16 16 15 15 15 14 14 14 14 13 13 15 16 16 17 16 17 18 17 18 18 18 21
7 6 5 1 0 1 2 1 4 3 4 1 7 1 3 2 6 7 5 6 5 6 7 9 11 11 11 11 11 10 9 9 8 7 7 7 10 15 19 22 24 18 8 9 13 14 13 10 10 14 19 22 22 25 28 29 29 27 25 23 20 19 19 18 19 21 21 21 21 21 21 20 19 18 16 15 14 14 13 12 14 14 13 12 12 13 14 14 14 16 17 17 16 16 17 18 19
4 4 3 2 4 4 4 2 4 4 1 4 7 2 6 1 4 6 4 3 1 2 5 8 11 12 11 10 11 11 10 9 8 8 8 8 10 13 16 19 19 16 13 11 13 17 21 18 11 12 13 14 15 19 22 24 26 27 26 24 21 20 20 19 20 22 23 23 22 21 21 20 19 19 17 15 14 14 13 12 13 14 13 12 12 13 15 14 15 17 16 16 15 15 16 17 17
6 4 2 0 4 4 4 4 4 3 2 6 7 3 7 4 1 5 4 4 4 5 6 8 11 12 10 9 10 9 8 8 8 7 7 8 9 10 13 15 17 18 18 16 10 12 19 24 20 15 15 16 15 18 21 22 23 24 25 25 22 21 20 21 23 25 25 25 23 22 22 20 19 19 18 16 15 15 15 15 14 14 14 13 12 14 15 15 16 16 16 15 15 15 16 16 15
6 5 5 3 1 2 2 3 1 1 4 6 5 2 5 3 1 4 4 7 9 8 7 7 8 8 8 8 8 6 5 5 5 5 5 6 7 10 12 14 17 19 19 16 8 7 13 20 23 23 23 21 17 19 23 23 23 24 25 24 23 21 21 21 24 26 27 26 24 24 23 21 21 20 18 17 16 16 15 16 16 15 15 14 14 14 14 15 16 15 16 16 16 16 15 15 15
4 4 5 4 2 2 1 3 1 1 4 6 3 3 2 2 2 5 5 9 9 9 8 7 8 8 7 7 7 6 5 5 4 3 2 1 2 6 10 14 16 15 13 9 2 2 9 15 18 21 22 21 17 18 23 26 26 26 26 25 23 22 20 21 23 26 27 25 23 23 23 23 22 21 19 18 18 17 16 16 17 16 16 15 15 15 16 16 15 16 17 17 16 15 14 14 14
4 5 5 5 4 4 3 2 2 2 3 4 2 2 2 3 3 1 4 7 7 8 8 7 9 9 8 8 9 8 6 5 5 5 5 4 4 2 2 6 7 3 3 3 2 2 6 12 13 13 15 18 18 18 21 26 28 28 26 24 23 21 19 19 22 24 25 24 22 23 23 23 23 21 19 20 19 18 17 16 16 16 16 16 15 16 17 16 16 17 17 16 15 14 14 14 15
3 3 6 3 5 5 3 3 5 4 1 3 1 1 0 4 6 3 5 7 7 8 7 10 11 8 8 9 9 8 7 6 6 6 6 6 6 5 6 7 7 8 5 4 5 5 3 6 8 7 10 16 19 20 21 23 25 25 21 19 20 19 17 17 20 21 22 22 21 22 21 20 21 21 20 21 20 18 18 17 17 17 17 17 17 17 18 17 17 18 17 15 14 14 14 14 16
1 2 3 3 5 7 4 2 1 3 2 3 0 3 0 2 4 4 7 8 8 8 8 11 11 9 9 8 7 8 8 7 7 6 5 7 7 5 4 5 6 7 6 7 9 9 8 6 5 6 9 12 15 19 21 20 21 21 19 18 19 20 20 20 20 17 16 18 19 20 20 19 19 22 22 23 22 19 19 19 18 18 17 16 16 17 17 17 17 17 15 14 13 13 14 14 15
4 2 4 2 3 5 3 1 1 3 2 4 0 4 3 3 1 2 7 10 8 8 9 9 9 9 10 9 8 9 9 9 9 8 6 6 7 7 5 5 7 7 6 8 11 10 9 7 8 8 7 7 7 11 17 19 21 22 22 21 22 23 24 23 20 12 9 16 20 19 20 20 21 23 24 23 22 21 20 19 18 19 18 17 16 15 15 16 16 15 14 13 12 13 14 14 14
5 5 4 3 3 0 1 2 2 2 3 3 2 2 1 3 2 1 5 8 8 9 10 10 10 10 9 9 10 11 11 10 9 9 8 8 10 11 10 10 11 9 7 7 9 10 7 3 5 6 6 6 6 6 13 18 20 21 22 22 21 22 22 22 21 16 13 18 23 21 20 21 22 23 23 23 22 21 21 20 20 19 17 17 16 15 14 14 14 13 13 13 12 13 13 13 13
2 2 2 2 4 3 2 3 4 4 4 3 2 2 1 2 3 1 4 6 8 9 9 10 10 10 9 9 8 9 9 8 8 8 9 10 14 17 17 17 16 14 12 12 11 10 9 5 2 2 3 3 4 6 10 15 17 19 20 19 20 21 20 20 22 21 18 20 22 21 21 23 25 24 23 23 23 22 22 21 21 20 17 17 16 15 14 14 13 13 13 13 12 13 13 13 13
1 1 1 1 1 2 2 2 3 5 4 3 3 1 3 4 2 2 4 5 7 9 9 9 9 10 9 7 6 7 7 8 8 8 8 10 14 18 20 21 22 21 19 18 16 14 12 10 5 2 1 4 5 7 11 14 16 18 19 18 19 19 19 19 21 21 19 21 22 22 24 27 26 25 25 25 24 23 22 20 20 19 18 17 16 16 15 15 15 14 14 14 12 12 13 13 13
6 4 3 4 3 3 3 2 2 2 4 4 5 3 4 4 1 3 4 5 7 8 9 9 9 10 8 6 6 7 8 8 9 8 8 10 14 17 19 21 23 23 22 21 20 16 13 12 10 7 4 5 6 8 13 15 16 17 18 20 21 20 20 20 20 19 19 22 23 24 26 28 26 26 26 25 23 22 21 19 19 19 19 18 17 17 16 16 16 16 15 14 13 12 12 13 13
Wind_Direction
299 293 304 355 359 7 359 75 64 316 84 283 267 240 254 234 227 270 277 253 203 266 272 8 10 58 94 118 120 91 49 51 113 110 152 86 97 121 137 142 143 137 134 139 145 149 150 148 151 154 156 155 153 150 147 144 145 144 142 141 138 135 133 131 131 129 128 126 124 122 120 118 114 112 109 107 107 107 106 104 102 99 97 94 92 91 94 100 100 99 100 101 98 96 94 94 98
279 218 77 23 9 37 286 93 95 301 46 306 272 193 255 267 236 243 236 203 200 234 80 74 70 75 99 120 113 78 48 45 74 92 98 96 91 98 120 133 138 136 135 142 149 154 155 152 154 156 158 157 156 153 150 149 148 147 144 143 140 137 135 133 132 130 128 125 124 121 120 118 116 114 113 113 112 112 110 108 106 102 99 96 94 91 90 94 98 102 107 111 108 106 103 101 102
226 173 83 30 27 76 53 44 105 194 131 258 276 228 250 275 224 220 222 196 217 219 118 103 82 57 76 73 52 63 79 70 82 97 87 91 89 95 117 130 139 142 145 150 156 159 160 158 157 159 161 160 159 157 154 152 149 147 145 143 141 138 136 135 133 131 128 126 124 122 122 120 118 116 118 118 116 116 114 111 108 105 103 100 97 93 91 88 91 103 115 120 118 115 112 112 111
190 168 68 50 52 43 63 50 158 148 176 221 264 262 249 230 214 215 222 210 227 175 108 105 69 358 62 74 55 77 94 82 84 100 88 90 110 126 135 147 152 154 155 157 162 162 163 162 161 161 162 163 162 160 157 153 149 147 147 145 143 141 140 138 135 132 129 127 126 125 125 123 121 118 121 120 118 122 118 112 112 112 107 104 101 96 94 92 90 102 116 121 120 118 117 119 116
177 170 173 85 86 23 100 135 181 152 201 199 228 281 289 243 223 239 246 242 262 75 98 98 89 12 62 69 58 98 97 84 84 100 109 122 137 147 156 164 163 160 159 161 163 162 162 162 162 163 164 165 164 161 158 153 149 150 151 150 147 145 143 140 136 132 129 129 127 126 127 126 123 121 123 123 126 128 120 117 120 118 109 106 102 97 97 98 96 106 119 124 124 124 124 124 120
155 120 107 88 115 206 120 240 242 228 230 200 242 279 287 278 243 239 258 261 265 185 113 90 103 99 79 57 48 33 111 110 103 122 131 144 154 162 167 165 158 155 156 156 158 158 159 162 163 164 166 165 165 162 158 155 154 157 157 155 152 147 144 141 138 134 130 131 128 128 130 129 125 124 126 129 132 130 122 122 120 114 108 104 100 100 101 97 95 104 121 129 130 131 130 127 121
133 104 91 66 337 351 130 231 233 253 242 201 231 258 269 280 265 244 267 251 266 285 101 111 118 105 75 86 59 7 102 126 135 147 147 155 164 166 162 153 146 148 151 152 154 157 159 164 165 166 167 165 165 163 160 160 161 164 161 157 153 149 146 145 143 139 136 135 133 133 134 132 129 128 130 133 132 125 123 122 116 111 108 106 104 105 101 93 92 99 118 131 134 136 134 127 120
123 109 118 95 12 337 154 257 241 227 242 223 239 251 256 266 263 249 251 227 226 54 102 136 118 95 35 71 85 357 101 131 145 153 153 157 162 158 152 148 148 151 153 155 157 159 162 165 166 167 167 166 166 165 165 165 165 166 164 158 153 151 149 151 150 146 142 140 139 138 137 135 134 133 134 134 129 124 124 122 116 113 112 111 108 103 97 92 93 100 116 132 138 140 135 127 115
111 95 74 91 108 296 279 279 261 230 246 257 264 264 256 249 240 208 245 301 220 91 97 151 98 96 96 79 98 8 100 128 139 147 151 154 158 151 151 155 155 153 155 159 158 160 164 167 167 167 167 167 167 167 168 167 167 168 165 160 156 154 153 157 155 149 146 144 144 143 143 141 140 139 140 136 130 130 129 124 120 118 116 114 107 99 96 94 95 102 118 133 140 140 135 124 109
79 89 121 94 133 294 298 264 252 248 247 248 254 260 256 240 227 193 298 301 61 72 72 80 76 103 115 94 104 132 127 135 136 139 149 154 155 151 154 160 159 157 159 160 160 162 164 166 167 168 168 168 169 169 170 169 170 168 165 162 159 157 157 159 157 153 149 147 147 146 146 146 144 143 143 140 135 136 132 127 125 122 118 112 103 99 99 96 97 106 121 134 140 140 132 118 104
44 325 136 106 106 218 262 256 258 266 271 266 251 250 247 242 287 355 313 307 63 102 112 80 83 104 96 90 93 141 148 140 137 141 153 154 152 153 155 161 163 162 161 160 161 163 163 165 167 168 168 169 171 172 172 171 169 167 164 164 162 160 160 159 159 158 155 153 149 146 147 145 143 143 143 142 141 141 135 130 128 124 121 113 104 103 102 98 100 109 125 136 140 138 127 114 100
74 307 92 116 212 201 228 253 273 282 286 278 249 245 236 31 42 283 298 339 83 116 141 112 125 118 89 102 138 155 148 135 142 147 153 154 154 156 155 161 164 163 162 161 161 162 163 165 167 168 170 171 173 174 174 172 169 166 166 167 165 163 160 159 161 161 159 156 151 148 147 146 143 142 142 143 146 145 137 134 131 129 125 115 108 107 103 101 103 114 130 139 141 136 125 112 95
132 184 95 144 215 200 251 261 280 293 290 270 234 267 82 73 154 220 201 30 67 100 88 130 141 117 95 129 128 160 149 139 146 148 153 154 158 157 155 159 161 162 162 162 163 163 165 165 167 170 172 173 174 174 174 174 170 168 169 170 169 165 162 161 162 161 160 156 152 150 149 148 146 143 141 143 149 148 141 138 135 135 129 117 112 110 104 106 106 118 135 143 142 135 124 110 95
174 182 116 216 254 219 255 266 280 272 276 274 284 310 319 184 218 199 107 55 28 88 105 119 124 98 104 144 130 185 171 154 148 148 154 154 157 156 154 156 158 162 162 165 165 164 165 166 169 171 172 172 172 172 174 175 172 171 172 172 170 166 163 162 162 160 159 156 154 155 154 153 151 146 143 145 153 153 149 142 140 143 131 118 116 113 108 110 110 119 137 147 144 135 124 110 95
177 193 116 187 283 268 249 239 252 236 261 276 285 304 333 285 291 29 69 86 47 105 113 122 133 103 147 171 167 187 173 159 149 148 152 152 154 153 154 155 157 160 161 165 165 164 166 167 170 171 171 170 170 172 174 176 174 173 173 173 170 167 165 162 161 160 159 157 155 154 154 157 154 150 147 149 155 157 156 146 147 149 132 121 120 119 114 115 116 118 134 147 146 138 128 112 95
173 125 96 237 250 253 244 235 262 214 245 247 255 328 75 324 331 30 352 108 83 61 80 129 221 132 165 178 169 167 162 155 148 147 147 147 149 148 150 150 151 156 160 164 163 165 167 168 171 170 171 171 172 174 175 176 175 175 175 175 172 170 166 163 163 162 160 156 153 150 150 157 157 155 154 154 157 160 161 152 152 149 137 131 127 127 122 121 123 120 130 145 149 144 132 113 96
131 118 200 249 235 239 235 232 327 122 259 277 341 40 93 329 323 41 43 70 79 43 46 47 360 75 149 159 147 152 154 152 148 145 143 143 145 142 144 144 146 153 160 163 163 166 168 170 171 172 173 174 176 178 178 176 176 178 178 177 175 173 168 166 166 164 162 156 154 152 153 159 160 161 160 160 162 163 162 156 155 151 143 141 134 134 130 125 129 127 128 140 150 146 133 117 98
128 162 213 234 227 227 206 204 300 319 296 304 349 41 77 14 317 346 51 63 80 66 47 55 38 46 76 98 129 143 150 151 151 147 145 147 147 143 142 143 147 153 160 163 167 170 171 173 174 174 175 177 179 179 178 176 177 179 179 180 179 175 171 170 170 168 165 160 159 160 160 164 164 164 164 167 169 166 162 160 162 156 146 145 141 140 137 130 131 133 131 136 146 145 134 120 98
163 184 211 227 215 225 220 229 302 304 221 294 335 41 50 360 285 358 64 80 91 83 59 68 74 69 77 99 124 140 147 152 156 152 149 151 150 146 142 143 150 157 162 165 172 176 175 175 176 177 176 179 180 178 177 176 178 180 180 182 181 177 175 175 174 173 171 168 167 166 165 166 167 166 166 171 173 169 165 166 172 165 154 149 146 144 141 135 133 137 138 140 143 144 137 120 96
191 190 219 241 225 265 278 242 276 268 209 113 317 37 37 324 287 64 96 101 96 115 119 99 105 116 113 122 135 143 148 154 160 155 151 148 142 137 133 142 156 164 169 171 177 181 180 178 178 179 179 179 179 177 177 178 181 184 183 184 182 179 179 179 178 177 176 175 171 167 163 164 170 167 165 169 172 173 170 172 179 176 167 156 150 149 146 142 138 138 142 147 148 148 142 123 101
214 191 210 233 221 261 269 245 256 260 222 155 291 32 24 312 310 110 125 96 74 171 166 145 146 148 143 148 150 149 151 155 160 156 147 136 119 115 124 150 168 173 176 176 180 183 183 181 180 180 180 179 179 178 178 182 185 186 186 185 182 181 182 182 181 180 180 178 172 165 160 164 172 169 168 171 175 178 175 177 183 185 182 170 160 155 151 150 146 141 142 147 151 150 141 127 109
253 236 223 228 223 253 266 256 243 251 12 46 5 29 3 309 325 127 117 117 205 206 178 156 153 156 154 157 158 154 155 157 159 154 140 119 108 126 152 169 176 178 177 178 181 185 185 182 182 181 180 181 182 184 183 185 188 187 186 185 183 182 184 183 182 183 182 178 171 165 161 164 173 174 174 176 178 180 179 181 184 185 187 181 173 162 156 157 155 149 146 146 148 147 139 132 118
239 266 244 233 225 234 260 270 230 219 107 86 16 333 315 16 323 298 91 158 212 173 155 151 151 156 153 154 158 161 162 159 156 147 136 125 135 163 175 175 173 173 175 180 182 185 184 182 184 184 183 185 187 189 188 186 189 188 186 186 183 180 181 182 183 184 181 176 172 170 167 168 175 179 178 179 180 181 182 181 178 176 177 179 178 171 162 161 164 158 156 158 154 150 142 138 132
221 247 245 237 226 227 251 252 220 201 153 178 177 141 152 69 294 301 347 254 163 130 140 143 147 151 150 155 161 164 159 150 145 142 144 151 168 181 179 172 169 174 182 185 184 184 183 183 186 187 187 188 190 192 191 189 190 189 186 185 182 179 179 180 181 183 181 178 176 176 176 175 177 181 181 179 182 184 183 178 172 167 165 173 177 175 170 165 170 168 166 171 167 161 152 157 171
222 230 238 237 227 227 241 230 217 220 189 188 156 149 210 203 191 282 290 197 122 129 140 140 144 150 154 160 162 160 146 136 130 132 143 160 176 185 182 176 174 180 188 186 183 181 181 184 186 189 190 191 192 194 193 191 190 189 187 185 181 180 180 180 181 182 181 182 181 181 184 183 181 184 184 180 181 185 185 178 173 167 160 166 169 168 169 166 169 170 175 178 177 179 176 191 208
225 223 238 240 240 239 243 233 216 226 228 172 150 186 235 229 166 273 243 165 132 129 137 141 143 152 160 162 162 154 141 134 127 132 144 159 173 187 188 186 182 184 190 186 181 180 181 184 183 186 189 192 195 196 196 194 191 189 188 186 183 183 182 181 182 183 183 184 184 183 188 189 187 187 186 184 185 187 188 182 179 174 164 163 161 155 156 161 164 166 173 175 178 189 195 211 224
259 253 257 247 244 251 242 238 227 214 228 188 163 198 242 249 146 262 257 162 138 128 140 151 148 158 165 163 161 153 146 138 137 143 148 157 174 187 187 190 191 189 191 186 181 181 181 182 182 184 188 194 200 201 199 195 190 188 189 188 187 185 183 183 185 185 185 186 186 186 189 191 189 189 188 188 188 190 190 185 183 182 173 167 167 161 155 157 156 154 159 168 182 200 209 212 220
295 273 277 267 261 271 244 231 237 201 229 191 146 169 252 240 162 234 241 151 145 142 151 160 157 166 168 165 159 155 152 142 143 149 157 172 183 189 187 191 193 191 193 187 181 181 183 185 188 191 191 194 201 204 201 194 190 190 192 192 191 188 183 184 187 189 190 190 191 189 188 188 188 190 191 191 189 189 190 185 183 187 182 176 179 178 169 160 155 157 171 189 203 210 207 189 185
287 260 261 283 327 312 255 235 223 158 226 185 115 17 278 234 213 236 212 151 152 148 155 164 164 165 166 172 163 162 158 145 145 154 171 185 188 191 190 194 195 193 190 183 181 186 190 191 194 196 193 196 202 205 201 193 191 194 196 194 192 190 187 187 191 194 196 195 195 191 188 188 188 191 194 194 192 191 192 188 186 189 186 182 183 177 170 166 172 185 194 199 199 197 198 188 185
279 273 225 286 350 316 252 227 202 187 213 160 116 322 267 247 240 246 206 148 150 152 163 170 168 163 166 184 173 167 161 149 150 162 179 188 190 192 191 194 197 192 185 181 185 191 195 197 199 198 195 201 205 204 197 192 195 196 196 195 191 191 194 195 196 199 200 199 199 194 190 191 191 193 194 196 196 195 195 196 197 194 187 180 169 164 165 164 172 184 190 186 179 185 192 188 190
291 314 317 344 331 282 276 218 188 227 220 142 133 233 256 262 254 255 219 147 155 162 173 173 168 166 167 188 182 172 170 157 156 165 179 187 192 193 189 190 194 190 183 182 186 190 195 199 202 200 201 205 204 200 193 193 200 199 194 192 189 192 196 198 200 201 203 204 203 198 194 196 197 196 196 198 198 200 201 204 206 200 190 178 162 161 166 160 164 183 191 177 168 173 175 165 165
322 307 303 328 199 266 314 277 198 205 262 142 150 219 265 265 255 254 205 152 162 164 175 176 169 172 173 191 190 173 174 162 159 168 180 188 194 194 188 188 190 190 188 184 184 188 197 201 202 202 203 202 198 195 196 198 200 197 190 180 178 188 193 197 202 203 205 207 205 200 197 199 201 199 200 202 202 204 205 204 205 196 186 178 170 172 171 157 160 184 187 170 162 159 161 159 155
344 149 233 243 183 275 322 292 216 190 214 187 186 213 276 265 253 260 201 150 162 162 173 177 173 180 178 189 196 173 170 165 165 171 179 186 191 191 190 190 189 192 194 189 185 188 195 198 198 198 191 187 190 191 196 200 196 191 194 188 186 194 197 199 204 206 207 207 205 201 200 201 202 202 204 206 207 205 201 200 197 187 182 182 183 182 171 143 148 171 168 161 164 156 153 155 154
308 4 258 252 205 232 284 301 278 180 180 212 215 221 241 257 266 283 286 159 161 164 175 179 176 181 177 187 196 181 173 174 180 174 169 178 185 187 190 190 188 191 191 187 183 181 184 187 191 194 182 172 183 188 192 193 184 185 197 203 201 202 201 203 206 211 211 208 206 203 203 202 203 204 205 208 208 202 199 197 190 181 181 188 188 180 158 125 137 167 163 156 166 165 157 155 155
235 300 332 289 268 250 257 281 286 172 180 203 211 225 238 263 297 303 289 184 169 171 172 174 171 173 185 195 194 185 180 176 187 180 163 167 176 178 181 182 182 183 180 176 174 173 179 181 177 178 173 163 167 174 183 184 178 182 193 200 199 196 199 205 210 214 213 210 208 205 204 203 204 204 204 207 206 203 201 195 187 181 185 193 189 180 159 126 140 167 155 148 161 173 169 159 155
215 237 201 254 271 273 253 259 261 181 175 192 196 217 231 261 299 300 312 140 157 161 156 164 172 178 192 198 197 182 179 182 191 185 164 160 166 169 172 172 172 172 170 169 171 175 180 178 170 165 165 167 162 159 168 174 173 180 190 195 195 194 200 207 213 215 213 211 210 208 205 203 205 204 203 205 203 202 198 189 185 182 186 193 190 183 165 142 161 175 158 149 159 170 168 157 157
269 296 303 284 277 276 260 270 273 186 165 193 196 209 231 252 270 273 313 92 131 152 160 175 178 184 192 192 199 188 182 191 191 182 163 158 161 165 166 162 159 160 163 168 173 180 179 170 171 172 176 182 174 165 169 173 172 178 186 191 196 200 203 207 210 212 211 211 210 208 206 204 206 206 204 202 198 197 192 186 185 182 184 189 188 181 163 153 170 176 161 154 158 163 162 161 161
272 278 293 292 280 276 276 277 275 168 141 205 203 200 247 259 252 255 232 112 145 168 173 184 179 186 193 188 199 193 179 186 187 174 156 155 156 158 157 154 155 155 159 169 176 177 171 165 171 173 176 186 183 173 172 175 176 183 190 194 200 203 204 206 207 207 207 207 206 207 206 206 209 207 204 201 196 194 191 185 183 181 180 182 182 176 164 164 172 172 162 159 162 161 161 165 162
268 274 287 284 268 282 292 299 323 54 107 203 196 183 242 268 266 256 193 145 174 179 179 186 179 182 191 194 200 188 167 170 183 165 150 157 155 151 147 147 154 155 160 171 175 169 164 166 173 172 177 186 186 182 178 178 182 190 197 199 200 201 202 204 204 204 204 204 206 208 210 210 210 207 204 201 198 197 194 188 182 181 180 180 179 172 166 171 176 176 170 163 163 162 160 164 162
262 249 259 271 277 294 281 309 348 4 70 178 170 171 250 297 322 305 248 165 178 183 188 189 180 180 188 193 193 186 181 181 181 170 159 160 150 139 136 141 146 151 162 171 168 161 162 171 178 181 188 187 187 191 191 189 191 195 198 199 198 198 199 201 201 201 201 204 207 209 211 211 210 207 203 200 201 200 198 193 187 185 183 182 182 175 172 177 180 181 176 166 164 162 161 167 166
257 225 220 256 274 242 225 284 348 351 355 81 99 61 315 326 340 311 305 359 12 137 181 191 198 197 194 190 187 191 190 178 166 150 134 128 121 120 129 139 144 152 167 173 165 161 163 172 179 185 192 189 189 194 195 195 195 194 195 196 194 196 198 198 197 196 199 203 206 207 208 209 208 206 203 201 203 203 199 197 193 189 187 185 183 178 180 183 181 184 182 173 173 172 170 175 176
264 237 222 228 234 235 241 6 38 17 346 322 86 64 303 318 334 286 300 353 358 19 114 190 223 235 220 195 196 203 180 87 85 88 90 95 100 110 124 137 145 155 171 174 167 165 166 173 181 184 187 188 192 195 195 196 195 191 191 189 186 188 191 196 196 192 196 203 207 207 206 208 208 205 204 203 206 205 200 199 197 192 190 187 181 179 187 183 175 180 182 176 181 182 175 177 184
245 242 220 207 209 263 291 34 79 77 287 283 81 110 253 315 319 279 325 20 13 23 35 341 239 238 232 216 196 101 59 61 78 85 89 101 104 107 122 139 148 161 179 178 169 169 171 177 184 187 187 187 191 195 197 198 195 192 192 190 189 188 188 194 197 193 197 206 211 209 206 209 209 207 206 206 206 204 199 198 197 194 192 190 182 182 188 182 173 174 179 181 186 185 179 180 188
226 237 209 188 263 285 297 58 100 189 242 320 9 110 138 303 285 300 31 47 27 23 22 6 360 339 290 170 77 74 85 91 93 93 95 109 117 122 133 146 158 171 172 146 148 166 177 183 189 194 193 190 192 194 197 199 196 193 193 192 192 193 193 196 198 195 199 209 215 214 210 208 205 206 207 204 202 200 199 199 196 194 195 192 187 185 185 182 179 175 178 188 191 189 189 187 187
231 222 204 212 228 241 285 75 143 193 101 333 315 75 108 274 290 340 42 62 31 12 15 19 25 26 38 65 73 72 73 69 72 86 102 113 121 131 141 153 167 173 127 81 108 159 185 196 203 207 204 200 198 198 198 199 197 195 194 194 192 194 200 202 201 199 199 205 215 219 216 209 203 205 204 198 196 195 198 201 199 198 197 195 188 183 183 187 190 185 183 191 194 195 199 198 190
226 186 171 218 338 52 9 123 150 68 69 228 272 274 116 276 318 348 24 56 27 354 9 30 38 41 50 60 64 66 63 60 64 72 85 102 120 134 145 156 170 176 146 124 149 168 189 216 251 247 226 213 208 206 202 199 198 198 199 196 192 193 200 205 206 204 200 200 208 217 218 210 204 202 198 193 194 193 195 202 203 200 198 196 189 181 185 191 191 188 188 192 195 197 203 205 201
175 135 132 11 1 24 35 67 103 68 31 241 249 192 113 86 329 342 4 50 92 29 31 38 42 41 44 49 51 59 65 67 71 72 73 85 107 128 141 155 172 186 199 197 174 173 184 193 228 268 255 234 226 219 211 202 198 200 203 203 199 196 199 203 203 202 201 198 201 211 213 207 202 198 193 191 192 190 192 195 196 196 191 190 188 189 194 191 185 186 188 192 196 200 203 205 205
112 95 108 13 336 10 20 359 41 84 251 255 244 153 96 98 310 328 358 58 78 71 57 49 52 48 43 48 53 58 66 74 83 86 87 92 102 123 139 155 174 189 207 217 203 186 187 188 199 224 237 235 234 226 216 207 200 200 205 209 207 203 200 201 200 199 200 201 201 205 206 205 202 197 192 191 190 189 190 187 186 187 183 182 186 192 197 191 186 189 190 192 196 200 202 202 200
99 85 89 107 310 4 351 312 347 187 244 260 255 81 74 107 99 350 27 73 67 70 73 60 63 61 49 51 54 55 57 67 89 106 121 131 134 145 153 166 183 196 207 215 216 213 205 197 194 198 211 222 227 222 215 209 205 206 209 211 213 210 205 203 201 200 201 203 203 201 200 202 201 197 192 187 183 180 181 181 181 182 181 183 187 189 188 185 186 191 192 193 195 197 200 201 201
123 132 123 131 131 99 248 277 333 259 262 275 295 64 92 152 64 2 44 77 71 70 66 48 46 46 44 44 42 44 37 29 28 30 48 82 128 155 167 179 191 199 202 201 208 243 222 211 197 193 205 217 219 213 210 208 207 209 210 210 213 212 208 207 204 203 202 202 202 200 198 197 196 194 188 179 172 168 167 171 176 181 184 185 189 188 185 187 190 193 193 194 195 196 198 202 205
160 158 134 144 151 141 193 205 164 223 267 297 317 98 148 149 119 2 59 74 72 76 69 57 53 42 43 44 39 41 33 25 22 13 17 2 344 338 215 214 217 233 226 216 9 11 218 216 210 204 209 215 215 209 206 206 207 208 208 208 211 212 213 215 211 206 203 199 197 196 194 193 192 189 182 175 170 166 164 167 170 178 183 184 187 187 185 189 194 195 196 198 199 197 198 201 204
210 143 105 145 178 144 149 173 165 176 210 326 347 102 186 131 121 102 84 75 70 80 79 75 71 58 56 49 38 37 30 26 26 19 20 10 351 340 320 303 315 343 339 293 324 344 284 228 218 218 218 216 217 215 208 205 206 208 207 205 210 215 220 227 223 213 204 197 195 193 192 193 190 186 180 176 174 170 167 168 169 172 176 179 184 189 190 191 195 198 199 200 200 196 197 199 199
224 109 138 208 171 134 131 216 150 105 134 276 191 117 81 118 99 47 64 69 60 70 75 75 76 69 64 54 39 35 28 26 30 26 20 13 8 2 342 329 335 340 322 285 294 323 341 321 267 239 231 223 218 212 204 202 206 207 202 200 205 210 215 223 226 219 205 196 194 190 190 192 188 181 177 175 173 171 169 171 174 173 172 173 177 185 191 193 196 198 197 199 199 196 196 197 197
120 166 200 193 105 102 107 154 7 66 162 264 277 134 174 150 142 358 63 72 66 70 75 76 73 66 61 55 46 41 33 30 32 33 28 18 16 17 18 16 7 353 325 290 286 309 339 317 276 263 262 269 256 222 204 202 207 205 203 202 203 205 206 209 214 211 192 189 191 191 188 187 182 173 170 170 170 171 172 174 177 175 172 172 170 173 182 187 193 196 195 196 196 193 195 199 202
127 167 177 128 121 186 78 141 141 120 184 259 24 87 178 151 193 271 86 92 91 82 75 70 62 54 53 48 43 41 39 35 29 27 25 18 15 13 15 16 14 12 359 329 310 321 344 325 271 276 284 296 303 257 212 203 204 205 208 211 210 208 203 202 205 203 192 188 189 190 188 187 183 174 170 171 171 173 174 175 175 173 173 173 169 169 174 177 185 192 193 192 190 192 196 199 203
52 93 57 106 142 164 182 170 156 155 193 217 101 50 301 213 226 189 114 106 103 91 76 70 62 55 53 47 41 36 35 32 23 22 19 15 14 13 16 18 15 16 14 6 357 349 349 349 327 332 313 275 275 259 220 208 208 207 208 212 215 211 204 202 205 205 196 185 182 184 191 196 189 177 172 171 169 169 170 170 171 172 173 173 172 173 176 176 181 187 188 186 185 189 193 197 200
151 140 152 200 175 148 173 175 143 144 167 180 146 150 263 254 255 132 121 100 95 91 82 76 69 65 60 52 49 41 35 29 16 16 16 12 11 10 13 17 18 20 18 11 6 4 2 359 356 3 283 225 223 228 222 218 216 207 201 205 209 208 207 205 206 203 189 179 179 181 192 200 190 175 171 169 167 167 167 167 168 170 172 174 174 176 176 176 177 179 181 182 183 185 190 194 195
154 166 184 191 190 154 152 242 290 115 139 169 154 165 260 271 127 117 107 83 79 81 83 80 70 67 61 44 46 47 41 29 13 10 11 8 9 8 8 13 16 17 15 7 3 5 8 4 356 346 302 254 232 218 213 214 215 210 206 206 202 202 205 203 202 197 183 179 181 179 187 191 179 169 171 170 166 167 168 169 167 168 172 173 172 172 172 173 174 176 179 180 181 182 186 190 189
Height
784 786 785 786 785 786 788 789 801 803 804 814 810 806 792 777 774 771 769 761 759 752 742 744 741 740 745 753 760 764 767 770 774 781 790 788 779 781 781 781 785 786 788 791 792 794 794 794 794 794 795 795 795 795 796 797 797 798 799 800 800 801 802 803 803 804 805 806 807 808 809 810 811 813 815 816 818 819 819 820 822 823 823 824 824 824 825 825 826 827 827 828 828 828 829 829 829
784 786 785 786 785 787 791 791 807 811 812 817 806 801 786 773 774 770 766 760 757 748 743 748 746 746 747 750 752 759 770 770 769 775 783 782 780 785 784 785 786 786 788 790 791 792 793 793 794 794 794 795 795 796 797 797 798 798 799 800 801 802 803 804 804 805 806 807 808 809 810 811 813 814 815 817 819 820 821 822 823 824 825 825 825 826 826 826 827 827 828 829 829 830 830 830 830
784 785 785 786 786 788 792 794 810 816 817 818 804 792 781 776 772 765 759 752 748 741 745 750 750 753 752 756 756 764 777 773 770 774 780 781 782 787 787 786 785 785 785 786 788 788 790 791 792 793 793 794 795 796 796 797 798 798 800 801 802 802 803 804 805 806 806 808 809 810 812 813 814 815 817 818 820 821 822 823 824 825 826 826 826 827 827 827 827 828 828 829 830 830 831 831 832
784 784 785 785 788 792 796 801 809 813 817 816 802 782 777 776 766 760 753 745 741 739 746 750 755 754 753 765 763 766 776 774 773 773 779 782 781 784 783 781 780 779 779 781 782 783 786 788 789 791 792 793 794 795 796 797 798 799 800 801 802 803 803 804 805 806 807 808 810 811 812 814 815 816 817 819 820 821 823 824 825 826 826 827 827 828 828 828 828 828 829 830 830 831 832 833 833
783 784 785 784 791 795 797 804 805 809 811 807 798 779 771 769 761 759 750 743 740 739 744 749 760 756 754 763 763 770 776 774 775 771 776 780 776 775 772 770 770 771 775 777 779 782 784 786 789 790 791 792 793 795 796 798 799 800 801 802 802 803 804 804 806 807 808 809 810 812 813 815 816 817 818 819 821 822 824 825 826 826 827 827 828 828 829 829 829 830 830 831 831 832 833 833 834
783 784 785 785 790 791 799 808 806 809 801 794 794 780 769 764 760 757 749 746 740 740 742 748 758 759 762 764 762 769 769 771 775 770 770 774 771 767 766 767 769 773 776 779 782 784 786 788 789 790 791 792 794 795 796 798 798 799 800 801 802 803 804 805 806 807 808 810 811 813 814 816 817 818 819 820 821 823 824 825 826 827 827 828 828 829 829 830 830 831 831 831 832 833 834 834 835
783 785 787 789 791 792 805 811 807 808 794 785 787 777 770 762 758 755 752 750 745 743 743 749 752 759 772 766 768 771 764 766 768 768 766 767 768 768 771 774 776 777 778 780 782 784 786 787 789 790 791 793 794 795 796 797 798 799 800 802 803 803 804 805 806 808 808 810 811 813 815 817 818 819 820 821 822 824 825 826 827 827 828 829 829 830 830 831 831 832 832 832 833 834 835 835 836
782 785 787 793 798 799 806 807 804 803 789 779 776 771 768 760 756 755 753 752 749 748 748 751 746 762 778 767 776 777 765 765 763 767 766 767 770 772 775 775 776 777 778 778 779 782 783 785 787 789 791 793 794 795 796 797 798 799 801 802 803 804 805 806 806 807 808 810 811 813 815 817 819 820 821 822 823 824 825 827 827 828 829 829 830 830 831 832 832 832 832 833 834 835 835 836 837
781 785 788 794 801 803 806 806 801 794 786 779 772 766 762 757 754 752 751 750 748 749 753 751 744 764 780 773 782 778 769 770 766 770 769 771 773 773 776 774 775 776 778 777 778 780 781 784 786 788 790 791 793 794 796 797 799 800 801 802 803 804 805 806 807 808 809 810 812 813 815 817 819 820 821 823 824 825 826 827 828 829 829 830 830 831 832 832 833 833 833 834 835 836 836 837 838
783 786 789 795 802 809 810 806 799 790 782 776 769 761 757 753 749 748 750 750 747 752 757 750 749 766 777 779 783 777 774 774 770 773 773 773 773 774 776 775 775 775 777 778 779 780 781 784 785 787 789 791 792 794 796 797 799 800 802 803 804 805 806 807 808 810 810 811 813 814 815 817 818 820 821 823 824 825 826 828 829 829 830 830 830 831 832 833 833 833 834 835 836 837 838 839 839
787 787 788 798 806 811 810 804 798 788 779 772 765 755 752 750 747 749 749 750 748 755 756 751 762 771 775 782 783 778 777 776 772 773 774 774 775 774 775 776 777 776 778 779 781 782 782 785 786 788 789 791 792 794 796 797 799 801 803 804 805 806 807 808 809 811 812 813 813 815 816 817 818 820 822 823 825 826 827 828 829 830 830 831 831 832 833 833 834 834 835 836 837 838 839 840 840
790 790 791 803 807 807 803 801 796 787 778 770 763 752 749 748 750 752 751 754 752 754 753 752 764 767 777 786 781 779 778 777 774 773 775 775 775 774 774 776 778 778 779 781 783 784 785 786 788 789 790 791 792 794 796 798 800 802 803 805 806 807 808 809 810 811 812 814 814 816 817 817 819 820 822 824 825 826 827 829 829 831 831 831 832 833 833 834 834 835 836 837 838 839 840 840 840
790 790 794 804 802 800 799 798 793 787 779 767 759 750 746 749 752 753 752 754 751 755 754 749 755 760 779 786 779 780 778 776 774 774 776 775 776 775 775 776 779 781 781 783 784 785 787 788 789 790 791 792 794 796 797 799 801 802 804 805 806 807 808 810 810 812 813 814 816 817 818 818 819 820 822 824 826 827 828 829 830 831 831 832 833 833 834 834 835 835 837 838 839 840 841 841 841
786 786 792 801 797 795 796 795 790 787 779 763 757 750 747 749 748 748 749 755 754 754 752 747 750 761 779 784 782 782 777 775 774 775 776 776 778 777 777 778 780 782 783 784 785 787 788 789 791 792 793 795 796 798 799 801 802 803 805 806 807 808 809 810 811 813 814 815 817 818 819 819 820 821 822 824 826 827 828 829 830 831 832 833 833 834 835 835 836 836 837 839 840 841 841 842 843
783 783 788 797 797 796 793 791 786 786 779 762 757 751 749 748 743 745 746 754 757 748 747 748 747 759 774 779 780 776 773 774 773 775 776 777 778 779 780 779 781 783 785 787 787 789 791 792 793 794 795 797 798 799 801 802 804 805 806 807 808 809 811 811 813 814 815 816 818 819 820 821 821 822 823 824 826 827 828 829 830 831 832 833 834 835 835 836 836 837 838 839 841 842 842 843 843
778 781 789 796 797 798 793 786 782 785 777 761 755 750 753 750 742 747 744 746 755 748 748 753 748 751 762 765 765 765 768 772 773 776 777 778 780 781 782 782 785 786 787 789 790 792 793 794 795 796 797 798 799 800 802 803 805 806 807 808 809 810 811 812 814 815 816 818 819 820 821 822 822 823 824 825 826 827 828 829 830 831 832 833 834 835 836 836 837 837 838 839 841 842 843 843 844
776 783 793 797 797 798 790 782 780 779 770 760 755 751 757 756 745 746 743 744 755 755 754 756 750 749 755 757 756 761 767 770 772 775 776 780 781 783 785 785 787 788 790 791 793 794 795 796 795 797 798 799 800 801 803 804 805 807 808 809 810 811 812 813 815 816 817 818 819 820 821 822 823 823 824 825 826 828 829 830 830 831 833 833 834 835 836 836 837 838 839 840 841 842 843 843 844
779 787 795 798 797 792 781 776 774 770 766 761 757 754 756 759 752 745 748 754 757 759 760 757 756 755 758 758 759 764 768 770 772 773 775 779 781 783 786 787 789 790 791 793 794 795 795 796 796 797 798 799 800 801 803 804 806 807 808 810 810 812 813 814 815 816 817 818 820 820 821 823 823 824 824 825 826 828 829 830 831 831 833 834 835 835 836 837 837 838 839 840 841 842 843 843 844
780 785 792 794 787 780 772 771 769 766 765 760 757 756 755 758 754 747 755 765 761 765 769 764 765 765 764 764 766 769 770 772 773 772 774 777 780 783 786 789 790 791 792 792 794 794 794 795 795 796 797 799 801 802 804 805 807 808 809 810 810 812 813 814 815 816 817 818 819 819 821 823 824 824 825 826 826 828 829 830 831 832 833 834 835 836 837 837 838 839 839 840 841 842 843 844 845
776 781 790 786 777 773 767 767 766 762 761 758 757 756 755 755 751 750 760 767 764 768 771 770 772 771 770 769 769 771 772 773 775 776 777 779 782 785 788 789 789 790 790 790 791 792 793 794 795 797 798 800 802 803 805 806 807 808 809 810 810 812 813 814 815 816 817 818 819 820 822 824 825 825 825 826 827 828 829 830 830 831 833 834 835 836 837 837 838 839 840 841 841 842 843 844 845
774 776 784 777 771 772 765 763 764 760 758 757 757 756 757 753 748 752 760 767 770 768 763 764 768 769 770 771 770 771 772 773 776 778 781 783 785 787 788 787 786 786 786 788 789 791 792 794 796 798 800 801 803 804 805 806 807 808 809 810 811 812 813 814 816 817 818 820 821 821 823 825 826 826 825 826 826 827 828 829 830 831 832 834 835 836 837 837 838 839 840 841 841 842 843 844 845
774 772 773 770 769 771 762 759 761 758 756 756 757 758 758 752 749 752 756 763 767 761 757 757 759 761 764 766 768 769 770 772 775 779 783 785 786 785 783 781 781 782 784 786 787 790 792 795 797 799 801 802 804 805 806 806 807 807 808 809 810 811 813 814 816 818 819 821 822 822 823 825 827 826 825 825 826 827 827 828 829 830 832 833 834 835 836 837 838 839 840 841 841 842 843 844 845
776 773 768 766 766 767 760 757 759 757 757 758 758 756 754 756 755 750 752 757 755 751 753 755 756 758 760 762 765 767 769 771 774 779 782 784 783 779 777 777 780 783 785 787 788 790 793 795 798 799 801 802 804 805 805 806 806 807 807 808 809 811 812 814 816 818 820 821 822 823 824 825 826 826 825 825 826 827 827 828 829 830 831 832 834 835 836 836 838 839 840 841 842 843 844 844 845
775 774 768 764 763 763 758 757 758 755 756 756 754 754 755 759 759 752 751 752 749 749 751 753 756 758 760 762 764 766 768 772 775 778 780 781 780 776 776 779 782 783 784 785 787 790 793 795 798 800 801 802 803 804 805 805 805 806 806 807 809 810 812 814 816 818 820 821 822 823 824 824 825 825 824 825 825 826 827 828 829 830 831 832 833 834 835 836 837 838 840 841 842 843 844 844 845
771 771 766 761 760 758 755 755 757 754 754 752 752 756 757 756 755 754 753 752 749 749 752 753 756 758 761 763 764 767 770 773 776 778 780 781 780 778 779 780 780 780 781 783 787 790 793 795 797 800 802 803 804 804 804 804 804 804 805 807 808 810 811 813 814 816 818 820 821 822 823 824 824 824 824 824 825 826 827 828 829 829 830 832 833 834 834 835 836 838 840 841 842 843 844 844 845
765 764 762 759 758 754 753 754 755 755 753 752 755 758 755 751 753 755 752 751 751 750 754 755 757 761 762 763 764 767 770 774 775 778 781 782 781 779 778 778 778 779 781 784 788 791 793 795 798 801 804 806 807 805 805 804 804 805 806 807 808 810 811 813 814 815 817 819 820 822 822 823 823 823 823 823 824 825 827 828 828 829 830 832 833 834 835 835 836 837 839 840 842 843 844 844 844
759 759 759 757 756 752 751 753 752 753 752 751 755 758 754 750 756 759 751 749 751 753 758 758 758 761 761 762 763 765 769 772 774 776 779 781 780 779 777 777 778 779 781 785 788 791 793 796 798 799 801 805 806 805 805 805 805 806 807 808 808 809 811 813 815 816 817 819 820 821 822 822 822 822 823 823 824 825 826 827 828 829 830 832 833 834 835 835 836 837 838 840 841 843 843 844 844
758 758 759 756 755 753 751 752 750 751 752 750 751 756 755 752 758 757 749 749 751 754 759 759 760 761 761 762 762 764 767 770 773 774 777 778 777 777 777 776 777 779 781 785 788 791 793 795 797 797 797 799 802 803 804 805 806 807 807 807 809 810 811 813 816 817 818 819 820 821 821 822 822 822 823 823 823 825 825 826 827 828 830 832 833 834 835 836 836 837 837 839 841 842 843 843 844
758 757 762 759 755 755 751 750 749 749 752 747 749 760 760 757 756 750 746 749 750 754 758 760 761 761 762 762 761 762 764 767 771 772 773 772 772 774 775 775 776 779 782 786 789 790 792 794 796 797 798 798 799 801 804 806 806 806 806 807 809 812 813 814 816 817 818 819 819 820 821 822 822 822 823 823 823 824 825 826 827 828 830 832 833 833 834 836 836 836 836 838 840 841 842 843 843
758 757 761 761 762 760 750 748 748 749 751 743 751 771 767 757 753 745 745 749 752 757 759 760 761 761 763 763 761 762 763 765 768 769 769 768 770 772 773 775 776 779 783 786 788 790 792 794 796 797 798 798 798 802 806 808 808 806 807 808 811 814 815 815 816 816 817 818 819 820 821 822 822 823 823 823 823 824 825 826 827 828 830 832 833 833 834 836 835 835 836 837 839 841 842 843 843
760 761 761 764 770 764 749 748 750 751 750 741 753 775 768 755 751 744 744 748 752 759 759 759 761 760 763 763 762 762 762 763 764 766 766 767 769 770 772 774 776 780 782 785 788 790 792 794 796 798 798 799 801 805 807 809 809 808 809 810 812 814 815 815 815 815 816 818 819 820 820 821 822 823 823 823 823 824 825 826 827 829 830 832 832 833 835 835 835 835 835 837 839 840 841 842 843
762 769 770 769 771 766 753 748 749 753 752 744 755 772 765 754 748 741 742 747 750 757 759 759 760 760 762 763 762 762 762 762 763 764 764 765 766 768 770 773 775 779 781 784 787 790 793 794 797 798 799 800 803 806 808 808 808 809 811 811 813 815 816 815 815 815 816 817 818 818 819 820 821 822 823 822 823 823 824 826 827 828 830 831 831 833 835 835 835 835 835 836 838 840 841 842 843
767 772 777 773 773 772 763 750 746 750 753 751 755 764 762 752 745 739 741 746 750 756 759 759 760 760 761 763 763 763 762 763 763 764 764 764 765 766 769 772 775 778 781 784 787 789 792 795 797 798 798 798 801 806 808 808 808 809 810 811 812 813 814 814 814 814 815 816 816 817 818 819 821 821 822 822 823 823 824 826 827 828 829 829 830 832 834 834 835 835 834 835 838 839 840 841 843
776 775 777 775 774 775 770 757 748 748 754 755 754 758 757 748 743 742 742 746 750 754 758 758 759 761 761 763 763 762 761 761 761 762 764 764 765 767 769 772 775 779 782 785 787 790 792 794 795 795 796 796 799 803 806 807 807 808 809 809 809 810 812 812 813 813 814 814 815 816 817 818 820 820 821 822 823 824 824 825 826 827 828 829 830 832 833 833 835 835 835 836 838 839 840 841 842
781 780 779 777 774 774 773 764 752 750 755 756 756 758 755 748 746 745 742 742 746 750 753 756 759 761 762 762 761 759 758 759 759 760 762 764 766 768 770 773 776 779 782 785 788 790 790 792 792 793 795 797 799 801 803 803 803 805 806 807 808 809 810 810 810 810 812 813 814 815 816 818 819 819 820 821 822 823 824 825 826 826 827 828 829 831 833 833 834 835 836 837 838 839 840 841 842
778 777 777 778 777 773 769 760 749 748 755 756 756 756 753 751 750 745 742 742 746 750 753 756 759 761 761 761 759 758 758 758 757 758 760 762 765 767 770 773 777 779 782 784 786 788 788 789 791 792 794 797 798 799 800 799 799 802 804 806 807 808 808 808 807 808 810 811 812 814 816 817 818 819 819 820 822 823 823 824 824 825 826 827 829 831 832 833 833 835 836 837 837 839 841 841 842
774 775 776 776 778 775 764 755 746 743 753 757 753 752 752 753 750 745 744 747 752 754 754 756 758 760 760 759 758 757 757 756 755 756 758 760 763 766 769 773 776 779 781 783 784 784 785 787 789 791 792 793 793 794 795 795 796 798 801 802 804 805 805 805 806 806 807 809 811 813 815 817 817 818 819 820 821 822 823 823 824 824 825 826 828 830 832 833 833 834 836 837 837 838 840 841 842
774 777 778 776 777 772 760 753 745 739 748 758 754 753 753 749 746 746 744 746 753 756 755 756 757 758 758 757 756 755 756 756 756 757 758 759 762 765 768 772 774 777 779 781 781 781 783 785 787 788 789 790 790 791 791 792 793 794 796 798 799 801 801 802 803 804 805 808 810 812 814 815 816 818 819 820 821 822 823 823 824 824 825 825 827 829 831 832 833 834 834 836 838 838 839 840 842
775 777 778 778 773 768 758 749 746 742 746 756 757 756 753 745 743 745 743 743 748 751 751 752 754 756 757 755 754 754 756 757 757 758 758 758 761 765 768 772 774 776 778 780 780 780 781 783 785 786 787 788 789 790 789 789 791 792 793 794 796 797 798 800 802 803 805 808 810 812 813 815 816 817 818 819 821 822 823 823 824 824 824 825 827 828 830 831 832 833 834 835 837 838 839 841 842
776 778 779 778 770 769 766 755 749 746 748 754 754 755 754 748 744 740 740 744 745 747 748 747 749 750 750 749 749 751 754 756 757 757 757 758 762 767 770 773 775 777 778 779 780 779 779 781 783 784 785 787 787 787 787 788 788 790 792 794 796 797 798 801 803 804 806 808 810 812 813 814 816 817 818 819 820 821 823 823 824 824 825 826 827 828 829 830 831 832 834 835 836 837 839 841 842
776 775 776 775 767 766 766 761 754 749 751 751 752 762 762 754 754 747 741 744 744 747 750 750 749 747 745 746 747 749 750 752 757 759 760 762 766 770 772 773 775 777 777 778 778 777 778 780 781 782 783 785 786 785 786 787 787 789 791 794 797 799 800 802 803 804 806 808 809 811 813 815 816 817 818 819 820 821 822 823 823 824 825 826 827 828 829 830 830 831 833 834 834 836 838 840 842
778 771 766 765 763 760 759 761 761 763 765 755 755 778 778 760 758 754 746 747 750 753 755 753 753 751 751 752 751 751 753 755 760 763 764 766 768 771 773 774 776 777 777 777 778 777 777 778 778 780 781 782 784 785 785 786 787 788 790 792 795 798 800 800 801 803 805 807 809 811 813 814 815 816 817 818 819 820 821 822 822 823 825 826 827 828 829 830 830 831 832 834 835 836 837 839 840
780 766 755 755 757 756 757 761 767 774 774 760 756 778 787 770 759 755 752 757 762 761 758 756 754 753 754 755 755 757 760 761 762 764 766 767 768 770 772 774 775 775 774 774 776 778 778 777 777 778 779 780 782 784 785 786 787 788 790 792 794 797 798 799 801 803 805 807 808 811 812 813 815 816 817 818 818 819 820 821 822 823 824 826 827 828 829 830 830 831 833 835 835 836 837 837 839
774 756 748 752 753 755 758 763 771 772 769 766 760 768 784 780 766 762 762 767 770 766 763 763 761 758 756 756 758 760 762 763 764 767 768 768 768 769 770 771 772 771 774 777 780 783 783 782 781 780 779 779 780 783 785 785 786 789 791 793 795 797 798 799 801 803 806 807 808 810 812 813 814 814 815 816 817 818 819 820 821 822 824 825 826 828 828 830 830 831 834 836 836 836 837 837 837
760 746 745 748 749 754 757 762 770 770 771 779 771 766 782 786 775 772 771 773 779 775 771 774 772 768 764 762 763 764 765 766 768 770 770 770 770 770 770 771 771 773 778 782 784 787 789 789 789 787 785 782 781 783 784 785 787 788 791 794 796 797 798 799 800 802 805 807 808 809 811 812 813 813 814 815 815 816 817 818 820 821 823 824 826 827 828 829 830 830 833 835 835 836 836 837 837
746 741 745 746 749 754 756 762 767 769 779 786 776 768 781 794 791 784 780 783 787 783 779 781 780 776 772 769 768 768 769 770 771 772 773 774 774 774 773 773 774 776 778 778 778 781 786 791 794 793 791 789 786 786 785 785 786 788 790 793 795 796 797 798 800 801 803 805 807 807 809 810 811 812 812 813 814 815 816 817 818 820 822 823 824 826 827 828 829 830 832 834 835 835 836 837 837
740 742 747 751 756 755 758 765 765 773 787 784 775 770 775 796 804 794 789 789 786 784 785 786 783 780 778 775 774 773 773 774 774 775 775 776 777 776 776 776 776 777 776 775 774 775 777 783 791 794 794 794 791 790 789 787 786 786 788 791 793 795 796 797 798 799 800 802 804 806 807 808 809 810 811 812 813 814 815 816 817 819 821 822 824 825 827 828 829 830 832 833 834 835 836 836 837
739 746 753 761 768 765 768 772 770 785 795 779 770 768 772 796 808 799 794 789 784 786 790 790 788 786 783 781 780 778 777 777 776 777 777 777 778 779 778 777 777 776 775 775 777 778 776 776 783 789 793 794 792 790 790 788 786 786 786 788 791 793 794 795 796 796 797 799 801 804 805 806 807 809 810 811 812 813 814 815 817 819 820 821 823 825 827 828 829 830 831 833 834 835 835 836 836
742 752 761 774 784 783 785 787 785 791 789 773 765 765 778 801 805 801 798 791 789 790 790 790 790 789 788 785 784 782 780 780 778 778 777 777 777 777 777 776 775 774 774 776 779 780 779 776 777 782 787 790 790 789 788 787 786 785 785 786 789 792 793 794 794 794 795 796 799 802 804 805 806 807 809 810 811 812 813 815 816 818 820 821 823 825 826 827 828 830 831 832 833 834 835 835 835
748 755 764 777 789 796 800 801 800 795 783 773 767 768 788 806 804 803 802 794 793 793 791 792 791 792 791 788 787 786 785 784 783 782 781 779 778 777 776 775 774 775 775 778 780 780 780 779 777 778 782 786 787 787 786 786 784 783 784 785 788 791 793 794 795 794 795 796 798 801 803 804 805 807 808 809 810 811 813 814 816 818 820 821 823 825 826 827 829 830 831 832 833 834 834 834 835
748 750 757 769 777 788 797 797 797 795 786 778 774 778 796 808 808 806 802 797 796 795 795 795 794 794 793 790 789 788 788 787 786 786 785 783 782 780 779 777 778 779 779 780 782 782 781 780 780 780 782 784 785 785 784 784 783 782 783 786 788 791 793 796 796 795 796 797 798 801 803 804 805 806 808 809 810 811 813 814 816 818 820 822 823 824 826 827 829 830 831 832 832 833 833 834 834
749 747 756 765 762 768 782 788 787 789 788 785 786 793 799 801 802 802 800 800 799 798 797 796 796 797 795 793 792 790 790 790 789 789 787 786 785 783 782 782 782 782 782 782 783 783 784 783 783 783 784 785 785 784 784 784 784 784 785 788 791 793 795 797 797 797 797 798 800 802 803 805 806 806 808 809 810 811 813 815 817 819 820 822 823 824 826 827 829 830 831 831 832 832 833 833 834
751 752 756 755 750 753 772 788 788 787 792 791 793 802 801 798 801 800 800 802 801 800 800 798 798 798 796 796 795 793 793 792 792 792 791 789 788 787 786 785 784 783 782 783 783 784 785 785 785 784 785 785 784 782 782 784 785 786 786 787 790 792 793 795 797 799 801 801 802 803 804 807 808 807 808 809 810 811 813 815 817 819 820 821 823 824 826 827 828 829 830 830 831 832 833 833 834
748 756 750 747 752 754 764 784 794 797 799 795 795 804 804 804 806 804 802 803 803 803 801 801 801 799 798 799 798 797 796 795 795 795 794 793 791 791 789 787 785 783 783 782 782 783 784 785 786 785 784 784 783 781 781 784 785 786 785 785 786 787 788 791 795 799 802 803 804 804 805 808 809 808 808 809 810 811 813 815 817 818 820 821 823 824 826 827 828 829 829 830 831 832 833 833 834
737 743 740 746 765 769 769 781 792 799 801 796 800 808 806 806 809 806 805 805 803 803 802 802 802 801 801 801 801 800 799 799 799 798 797 796 794 793 790 787 785 783 782 782 782 783 783 784 785 784 782 781 781 781 781 783 784 785 785 785 785 786 787 790 794 797 800 800 801 803 805 808 810 808 808 809 810 812 813 815 817 819 820 821 823 824 825 826 827 828 829 830 831 832 833 833 834
734 739 741 746 758 765 768 773 778 787 795 797 804 810 807 808 809 806 805 804 802 803 803 804 804 803 804 804 804 804 802 802 802 801 800 798 796 795 791 788 786 783 782 782 782 783 783 783 782 781 779 778 779 781 782 783 784 785 785 784 785 785 787 790 793 795 797 799 800 803 806 809 810 808 808 809 811 812 814 816 817 819 820 821 823 824 825 826 827 828 829 830 831 832 832 833 833
743 748 752 752 750 753 761 767 768 772 782 792 801 809 811 809 806 804 805 804 802 803 804 805 806 806 806 806 806 805 803 804 804 802 800 799 798 797 793 790 787 784 783 783 784 784 784 784 782 779 778 777 777 779 781 782 783 784 784 783 783 784 786 789 792 794 796 797 799 801 804 809 808 807 808 810 811 813 814 816 818 819 820 821 822 824 825 826 827 828 829 830 831 832 832 833 833
742 748 752 752 751 755 766 774 769 764 772 784 790 803 814 810 804 804 806 805 804 805 806 807 808 808 810 809 807 805 804 805 805 803 801 800 799 798 796 793 789 787 786 786 786 786 785 784 782 781 780 779 778 778 778 779 781 782 781 781 780 781 783 786 790 793 795 796 797 799 803 807 807 807 809 810 811 813 815 817 818 819 820 821 822 824 825 826 827 828 829 830 831 831 832 833 833